Weather History for Marietta, GA

Change the Weather History Date:

Wednesday, April 3, 2013

  Actual Average Record
Temperature  
Mean Temperature 52 °F -  
Max Temperature 60 °F 67 °F 86 °F (1999)
Min Temperature 45 °F 47 °F 41 °F (1997)
Degree Days  
Heating Degree Days 12    
Growing Degree Days 2 (Base 50)    
Moisture  
Dew Point 33 °F    
Average Humidity 52    
Maximum Humidity 93    
Minimum Humidity 32    
Precipitation  
Precipitation 0.09 in - - ()
Sea Level Pressure  
Sea Level Pressure 30.15 in    
Wind  
Wind Speed 5 mph (NE)    
Max Wind Speed 13 mph    
Max Gust Speed -    
Visibility 10 miles    
Events Rain    
Averages and records for this station are not official NWS values.
T = Trace of Precipitation, MM = Missing Value Source: NWS Daily Summary

Daily Weather History Graph

Daily Weather History Graph

Search for Another Location

Airport:

Trip Planner

Search our weather history database for the weather conditions in past years. The results will help you decide how hot, cold, wet, or windy it might be!

Date:

Astronomy

Apr. 03, 2013 Rise Set
Actual Time 7:22 AM EDT 8:00 PM EDT
Civil Twilight 6:57 AM EDT 8:25 PM EDT
Nautical Twilight 6:27 AM EDT 8:55 PM EDT
Astronomical Twilight 5:57 AM EDT 9:25 PM EDT
Moon 2:45 AM EDT (4/3) 1:28 PM EDT (4/3)
Length of Visible Light 13h 28m
Length of Day
12h 38m
Last Quarter, 45% of the Moon is Illuminated
Apr 3
Last Quarter
Apr 10
New
Apr 18
First Quarter
Apr 25
Full
May 2
Last Quarter

Hourly Weather History & Observations

Time (EDT) Temp. Windchill Dew Point Humidity Pressure Visibility Wind Dir Wind Speed Gust Speed Precip Events Conditions
12:58 AM 50.4 °F - 26.2 °F 39% 30.15 in 10.0 mi NNW 3.5 mph - N/A   Scattered Clouds
1:58 AM 48.9 °F - 26.4 °F 42% 30.13 in 10.0 mi NNW 6.9 mph - N/A   Mostly Cloudy
2:58 AM 47.5 °F - 27.3 °F 46% 30.12 in 10.0 mi NNW 5.8 mph - N/A   Scattered Clouds
3:58 AM 45.9 °F - 27.9 °F 49% 30.10 in 10.0 mi Variable 1.2 mph - N/A   Clear
4:58 AM 45.9 °F 43.6 °F 28.0 °F 50% 30.11 in 10.0 mi NW 4.6 mph - N/A   Scattered Clouds
5:58 AM 45.7 °F 44.4 °F 29.3 °F 53% 30.12 in 10.0 mi NW 3.5 mph - N/A   Mostly Cloudy
6:58 AM 46.2 °F 45.0 °F 29.8 °F 53% 30.15 in 10.0 mi Variable 3.5 mph - N/A   Mostly Cloudy
7:58 AM 46.0 °F 43.9 °F 29.7 °F 53% 30.17 in 10.0 mi Variable 4.6 mph - N/A   Overcast
8:58 AM 48.4 °F - 30.0 °F 49% 30.18 in 10.0 mi Variable 2.3 mph - N/A   Overcast
9:58 AM 52.0 °F - 31.3 °F 45% 30.19 in 10.0 mi Variable 5.8 mph - N/A   Overcast
10:58 AM 55.2 °F - 27.9 °F 35% 30.19 in 10.0 mi East 9.2 mph - N/A   Overcast
11:58 AM 56.7 °F - 28.4 °F 34% 30.18 in 10.0 mi ESE 12.7 mph - N/A   Overcast
12:58 PM 57.2 °F - 28.9 °F 34% 30.17 in 10.0 mi East 8.1 mph - N/A   Overcast
1:58 PM 58.8 °F - 28.8 °F 32% 30.17 in 10.0 mi East 9.2 mph - N/A   Overcast
2:58 PM 59.4 °F - 30.2 °F 33% 30.17 in 10.0 mi Variable 4.6 mph - N/A   Overcast
3:58 PM 60.4 °F - 30.4 °F 32% 30.17 in 10.0 mi Variable 6.9 mph - N/A   Overcast
4:58 PM 60.1 °F - 31.5 °F 34% 30.14 in 10.0 mi Variable 5.8 mph - N/A   Overcast
5:58 PM 59.0 °F - 30.4 °F 34% 30.12 in 10.0 mi Variable 5.8 mph - N/A   Overcast
6:20 PM 59.0 °F - 32.0 °F 36% 30.12 in 10.0 mi East 4.6 mph - N/A   Light Drizzle
6:29 PM 57.2 °F - 32.0 °F 38% 30.12 in 10.0 mi Variable 5.8 mph - N/A   Overcast
6:35 PM 57.2 °F - 32.0 °F 38% 30.12 in 10.0 mi Variable 5.8 mph - N/A   Light Drizzle
6:58 PM 55.8 °F - 36.1 °F 48% 30.14 in 10.0 mi East 4.6 mph - 0.00 in Rain Light Rain
7:58 PM 51.4 °F - 44.4 °F 77% 30.17 in 10.0 mi ENE 2.3 mph - 0.03 in Rain Light Rain
8:58 PM 49.8 °F - 45.7 °F 86% 30.17 in 7.0 mi NE 4.6 mph - 0.02 in Rain Light Rain
9:58 PM 48.6 °F - 44.1 °F 84% 30.17 in 7.0 mi ENE 4.6 mph - 0.01 in Rain Light Rain
10:58 PM 47.5 °F - 44.2 °F 89% 30.19 in 7.0 mi ENE 3.5 mph - 0.03 in Rain Light Rain
11:08 PM 48.2 °F - 44.6 °F 87% 30.17 in 9.0 mi ENE 4.6 mph - N/A Rain Light Rain
11:13 PM 48.2 °F - 44.6 °F 87% 30.17 in 10.0 mi ENE 4.6 mph - N/A Rain Light Rain
11:55 PM 46.4 °F 42.9 °F 44.6 °F 93% 30.16 in 10.0 mi East 6.9 mph - N/A   Light Drizzle